Weather History for Taylorville, IL

Change the Weather History Date:

Thursday, October 4, 2012

  Actual Average (KSPI) Record (KSPI)
Temperature  
Mean Temperature 66 °F 59 °F  
Max Temperature 80 °F 71 °F 90 °F (1897)
Min Temperature 50 °F 47 °F 32 °F (1968)
Degree Days  
Heating Degree Days 0 7  
Month to date heating degree days 27  
Since 1 July heating degree days 108  
Cooling Degree Days 0 1  
Month to date cooling degree days 6  
Year to date cooling degree days 1105  
Growing Degree Days 16 (Base 50)    
Moisture  
Dew Point 52 °F    
Average Humidity 70    
Maximum Humidity 100    
Minimum Humidity 37    
Precipitation  
Precipitation 0.00 in 0.10 in 4.74 in (1941)
Month to date precipitation 0.40  
Year to date precipitation 28.95  
Snow  
Snow 0.00 in 0.00 in 0.00 in ()
Month to date snowfall 0.0  
Since 1 July snowfall 0.0  
Since 1 September snowfall 0.0  
Snow Depth -    
Sea Level Pressure  
Sea Level Pressure 30.10 in    
Wind  
Wind Speed 9 mph (SW)    
Max Wind Speed 21 mph    
Max Gust Speed 26 mph    
Visibility 10 miles    
Events Thunderstorm    
T = Trace of Precipitation, MM = Missing Value Source: NWS Daily Summary

Daily Weather History Graph

Daily Weather History Graph

Search for Another Location

Airport:

Trip Planner

Search our weather history database for the weather conditions in past years. The results will help you decide how hot, cold, wet, or windy it might be!

Date:

Astronomy

Oct. 04, 2012 Rise Set
Actual Time 6:56 AM CDT 6:34 PM CDT
Civil Twilight 6:29 AM CDT 7:01 PM CDT
Nautical Twilight 5:58 AM CDT 7:32 PM CDT
Astronomical Twilight 5:27 AM CDT 8:03 PM CDT
Moon 9:11 PM CDT (10/4) 11:12 AM CDT (10/4)
Length of Visible Light 12h 31m
Length of Day
11h 37m
Waning Gibbous, 82% of the Moon is Illuminated
Oct 4
Waning Gibbous
Oct 8
Last Quarter
Oct 15
New
Oct 21
First Quarter
Oct 29
Full

Hourly Weather History & Observations

Time (CDT) Temp. Heat Index Dew Point Humidity Pressure Visibility Wind Dir Wind Speed Gust Speed Precip Events Conditions
12:15 AM 59.0 °F - 53.6 °F 82% 30.06 in 10.0 mi South 5.8 mph - N/A   Overcast
12:35 AM 59.0 °F - 53.6 °F 82% 30.06 in 10.0 mi South 8.1 mph - N/A   Scattered Clouds
12:55 AM 59.0 °F - 53.6 °F 82% 30.07 in 10.0 mi South 5.8 mph - N/A   Scattered Clouds
1:15 AM 59.0 °F - 53.6 °F 82% 30.07 in 10.0 mi South 5.8 mph - N/A   Mostly Cloudy
1:35 AM 57.2 °F - 53.6 °F 88% 30.08 in 10.0 mi South 6.9 mph - N/A   Overcast
1:55 AM 57.2 °F - 53.6 °F 88% 30.08 in 10.0 mi South 5.8 mph - N/A   Mostly Cloudy
2:15 AM 57.2 °F - 53.6 °F 88% 30.08 in 10.0 mi South 6.9 mph - N/A   Mostly Cloudy
2:35 AM 57.2 °F - 53.6 °F 88% 30.08 in 10.0 mi South 6.9 mph - N/A   Overcast
2:55 AM 57.2 °F - 53.6 °F 88% 30.08 in 10.0 mi South 6.9 mph - N/A   Overcast
3:15 AM 57.2 °F - 53.6 °F 88% 30.08 in 10.0 mi South 6.9 mph - N/A   Scattered Clouds
3:35 AM 55.4 °F - 53.6 °F 94% 30.08 in 10.0 mi South 6.9 mph - N/A   Clear
3:55 AM 55.4 °F - 53.6 °F 94% 30.09 in 10.0 mi South 8.1 mph - N/A   Clear
4:15 AM 55.4 °F - 53.6 °F 94% 30.08 in 10.0 mi South 6.9 mph - N/A   Clear
4:35 AM 55.4 °F - 53.6 °F 94% 30.09 in 10.0 mi South 8.1 mph - N/A   Clear
4:55 AM 53.6 °F - 53.6 °F 100% 30.09 in 10.0 mi South 8.1 mph - N/A   Clear
5:15 AM 53.6 °F - 53.6 °F 100% 30.09 in 10.0 mi South 6.9 mph - N/A   Clear
5:35 AM 53.6 °F - 53.6 °F 100% 30.08 in 10.0 mi South 6.9 mph - N/A   Clear
5:55 AM 53.6 °F - 53.6 °F 100% 30.09 in 10.0 mi South 6.9 mph - N/A   Clear
6:15 AM 53.6 °F - 53.6 °F 100% 30.09 in 10.0 mi South 8.1 mph - N/A   Clear
6:35 AM 53.6 °F - 53.6 °F 100% 30.10 in 10.0 mi South 6.9 mph - N/A   Clear
6:55 AM 53.6 °F - 53.6 °F 100% 30.10 in 10.0 mi South 6.9 mph - N/A   Clear
7:15 AM 53.6 °F - 53.6 °F 100% 30.11 in 10.0 mi South 6.9 mph - N/A   Clear
7:35 AM 55.4 °F - 53.6 °F 94% 30.11 in 10.0 mi South 8.1 mph - N/A   Clear
7:55 AM 55.4 °F - 53.6 °F 94% 30.11 in 10.0 mi South 8.1 mph - N/A   Clear
8:15 AM 57.2 °F - 55.4 °F 94% 30.12 in 10.0 mi SSW 8.1 mph - N/A   Clear
8:35 AM 60.8 °F - 55.4 °F 82% 30.12 in 10.0 mi SSW 9.2 mph - N/A   Clear
8:55 AM 62.6 °F - 55.4 °F 77% 30.12 in 10.0 mi SSW 11.5 mph 17.3 mph N/A   Clear
9:15 AM 64.4 °F - 55.4 °F 73% 30.12 in 10.0 mi SSW 10.4 mph - N/A   Clear
9:35 AM 66.2 °F - 55.4 °F 68% 30.11 in 10.0 mi SSW 12.7 mph 18.4 mph N/A   Clear
9:55 AM 69.8 °F - 55.4 °F 60% 30.11 in 10.0 mi SSW 12.7 mph 19.6 mph N/A   Clear
10:15 AM 71.6 °F - 55.4 °F 57% 30.11 in 10.0 mi SW 12.7 mph 16.1 mph N/A   Clear
10:35 AM 71.6 °F - 55.4 °F 57% 30.11 in 10.0 mi SSW 12.7 mph - N/A   Clear
10:55 AM 73.4 °F - 55.4 °F 53% 30.11 in 10.0 mi SW 13.8 mph 21.9 mph N/A   Clear
11:15 AM 75.2 °F - 53.6 °F 47% 30.10 in 10.0 mi WSW 16.1 mph 26.5 mph N/A   Clear
11:35 AM 75.2 °F - 53.6 °F 47% 30.09 in 10.0 mi SW 15.0 mph 20.7 mph N/A   Clear
11:55 AM 77.0 °F - 55.4 °F 47% 30.09 in 10.0 mi SW 16.1 mph 21.9 mph N/A   Clear
12:15 PM 77.0 °F - 53.6 °F 44% 30.09 in 10.0 mi SW 16.1 mph 23.0 mph N/A   Clear
12:35 PM 78.8 °F - 53.6 °F 42% 30.09 in 10.0 mi SSW 17.3 mph - N/A   Clear
12:55 PM 78.8 °F - 53.6 °F 42% 30.08 in 10.0 mi SW 15.0 mph 19.6 mph N/A   Clear
1:15 PM 80.6 °F 80.3 °F 53.6 °F 39% 30.08 in 10.0 mi SW 15.0 mph 21.9 mph N/A   Clear
1:35 PM 80.6 °F 80.3 °F 53.6 °F 39% 30.07 in 10.0 mi SSW 16.1 mph 23.0 mph N/A   Clear
1:55 PM 80.6 °F 80.3 °F 53.6 °F 39% 30.07 in 10.0 mi SW 15.0 mph 21.9 mph N/A   Clear
2:15 PM 80.6 °F - 51.8 °F 37% 30.06 in 10.0 mi SSW 16.1 mph - N/A   Clear
2:35 PM 80.6 °F 80.3 °F 53.6 °F 39% 30.06 in 10.0 mi SSW 20.7 mph 25.3 mph N/A   Clear
2:55 PM 80.6 °F 80.3 °F 53.6 °F 39% 30.06 in 10.0 mi SW 16.1 mph 25.3 mph N/A   Scattered Clouds
3:15 PM 78.8 °F - 53.6 °F 42% 30.07 in 10.0 mi SW 15.0 mph - N/A   Scattered Clouds
3:35 PM 78.8 °F - 53.6 °F 42% 30.06 in 10.0 mi WSW 19.6 mph 25.3 mph N/A   Scattered Clouds
3:55 PM 77.0 °F - 53.6 °F 44% 30.06 in 10.0 mi SW 15.0 mph - N/A   Scattered Clouds
4:15 PM 77.0 °F - 53.6 °F 44% 30.06 in 10.0 mi SW 13.8 mph - N/A   Scattered Clouds
4:35 PM 77.0 °F - 55.4 °F 47% 30.07 in 10.0 mi SW 12.7 mph - N/A   Mostly Cloudy
4:55 PM 75.2 °F - 55.4 °F 50% 30.07 in 10.0 mi WSW 9.2 mph - N/A   Mostly Cloudy
5:15 PM 77.0 °F - 55.4 °F 47% 30.07 in 10.0 mi WSW 6.9 mph - N/A   Scattered Clouds
5:55 PM 75.2 °F - 55.4 °F 50% 30.08 in 10.0 mi West 12.7 mph 17.3 mph N/A   Mostly Cloudy
6:15 PM 69.8 °F - 50.0 °F 49% 30.09 in 10.0 mi NNW 16.1 mph 20.7 mph N/A   Mostly Cloudy
6:35 PM 64.4 °F - 48.2 °F 56% 30.11 in 10.0 mi NNW 13.8 mph - N/A   Scattered Clouds
6:55 PM 62.6 °F - 48.2 °F 59% 30.11 in 10.0 mi North 8.1 mph - N/A   Scattered Clouds
7:15 PM 62.6 °F - 48.2 °F 59% 30.11 in 10.0 mi NNW 9.2 mph - N/A   Scattered Clouds
7:35 PM 60.8 °F - 48.2 °F 63% 30.13 in 10.0 mi NNW 13.8 mph - N/A   Clear
7:55 PM 59.0 °F - 46.4 °F 63% 30.14 in 10.0 mi NNW 13.8 mph - N/A   Clear
8:15 PM 57.2 °F - 46.4 °F 67% 30.14 in 10.0 mi NNW 15.0 mph 18.4 mph N/A   Scattered Clouds
8:35 PM 53.6 °F - 44.6 °F 72% 30.15 in 10.0 mi NNW 13.8 mph - N/A   Clear
8:55 PM 51.8 °F - 44.6 °F 76% 30.16 in 10.0 mi NNW 12.7 mph - N/A   Clear
9:15 PM 51.8 °F - 44.6 °F 76% 30.17 in 10.0 mi NW 15.0 mph - N/A Thunderstorm Scattered Clouds
9:35 PM 51.8 °F - 44.6 °F 76% 30.17 in 10.0 mi NW 10.4 mph - N/A   Scattered Clouds
9:55 PM 51.8 °F - 44.6 °F 76% 30.17 in 10.0 mi NNW 9.2 mph - N/A Thunderstorm Mostly Cloudy
10:15 PM 51.8 °F - 44.6 °F 76% 30.18 in 10.0 mi NNW 8.1 mph - N/A   Mostly Cloudy
10:35 PM 51.8 °F - 46.4 °F 82% 30.20 in 10.0 mi NNW 8.1 mph - N/A   Overcast
10:55 PM 51.8 °F - 44.6 °F 76% 30.18 in 10.0 mi NNW 8.1 mph - N/A   Mostly Cloudy
11:15 PM 51.8 °F - 46.4 °F 82% 30.17 in 10.0 mi North 6.9 mph - N/A   Scattered Clouds
11:35 PM 51.8 °F - 44.6 °F 76% 30.18 in 10.0 mi NNW 10.4 mph - N/A   Scattered Clouds
11:55 PM 50.0 °F - 44.6 °F 82% 30.18 in 10.0 mi NNW 6.9 mph - N/A   Scattered Clouds